Retour au catalogue

ATLAS 5 CENTAUR DEB

LostHEO
NORAD 46858·DEBRIS·🇺🇸 United States

Lancé Oct 17, 2018 depuis Cape Canaveral Space Force Station

Loading…

Prochains Passages (prochaines 24 heures)

TLE

PériméSource: Space-Track

Époque: Mar 1, 2024, 04:32 UTC

1 46858U 18079DP  24061.18944800 -.00000123  00000-0  00000+0 0  9999
2 46858  11.6771  94.2852 4572660 227.9420  82.9750  1.95418361 23736

Suivez ATLAS 5 CENTAUR DEB en temps réel avec AllMySat

Download on the App Store